Regional Weather Roundup
Issued by NWS Kansas City/Pleasant Hill, MO

Home | Current Version | Previous Version | Text Only | Print | Product List | Glossary On
Versions: 1 2 3 4 5 6 7 8 9 10 11 12 13 14 15 16 17 18 19 20 21 22 23 24 25 26 27 28 29 30 31 32 33 34 35 36 37 38 39 40 41 42 43 44 45 46 47 48 49 50
404
ASUS43 KEAX 060010
RWREAX

WEATHER ROUNDUP FOR EASTERN KANSAS AND NORTHWEST MISSOURI
NATIONAL WEATHER SERVICE KANSAS CITY/PLEASANT HILL MO
700 PM CDT THU MAY 05 2016

KSZ040-057-103>105-MOZ028-029-037-043-060100-
...KANSAS CITY METROPOLITAN AREA...

CITY           SKY/WX    TMP DP  RH WIND       PRES   REMARKS
K.C. INTL      MOSUNNY   71  42  35 N5        30.03S
6HR MIN TEMP:  69; 6HR MAX TEMP:  73;

K.C. DOWNTOWN  SUNNY     72  39  30 NE3       30.01S
6HR MIN TEMP:  71; 6HR MAX TEMP:  74;

LEES SUMMIT    SUNNY     69  39  33 N6        30.03S
6HR MIN TEMP:  69; 6HR MAX TEMP:  73;

OLATHE - IXD   SUNNY     70  41  34 N3        30.03F
6HR MIN TEMP:  70; 6HR MAX TEMP:  74;

OLATHE - OJC   SUNNY     71  35  26 N5        30.02F
6HR MIN TEMP:  69; 6HR MAX TEMP:  73;

LAWRENCE       SUNNY     73  42  32 NE5       30.02F

$$

MOZ001>008-011>017-020>025-030>033-038>040-044>046-053-054-060100-
...NORTHERN AND CENTRAL MISSOURI...

CITY           SKY/WX    TMP DP  RH WIND       PRES   REMARKS
ST. JOSEPH     SUNNY     73  38  27 NE3       30.02F
6HR MIN TEMP:  70; 6HR MAX TEMP:  74;

MOSBY          CLEAR     72  34  25 CALM      30.02S
WARRENSBURG    SUNNY     68  34  28 N5        30.02S
WHITEMAN AFB   SUNNY     68  39  35 N7        30.01F
6HR MIN TEMP:  67; 6HR MAX TEMP:  71;

CLINTON        SUNNY     68  41  37 CALM      30.03S
SEDALIA        SUNNY     69  33  26 N7        30.03F
6HR MIN TEMP:  68; 6HR MAX TEMP:  73;

WARSAW         NOT AVBL
CHILLICOTHE      N/A     72  37  28 CALM      30.03F
6HR MIN TEMP:  67; 6HR MAX TEMP:  73;

KIRKSVILLE     SUNNY     65  37  35 N9        30.03S
6HR MIN TEMP:  63; 6HR MAX TEMP:  68;


$$

MOZ041-047>049-056>058-063>065-088>090-097-060100-
...EASTERN AND SOUTHERN MISSOURI...

CITY           SKY/WX    TMP DP  RH WIND       PRES   REMARKS
ST. LOUIS INTL PTCLDY    64  42  44 NW6       30.00F
6HR MIN TEMP:  62; 6HR MAX TEMP:  68;

SPIRIT OF STL  SUNNY     66  41  40 N7        29.99F
COLUMBIA       SUNNY     67  36  31 NE12      30.02S
JEFFERSON CITY SUNNY     68  34  28 N8        30.01F
ROLLA          SUNNY     64  39  39 N7        30.00S
OSAGE BEACH    SUNNY     66  30  26 N8        30.02S
SPRINGFIELD    SUNNY     68  31  25 N10       30.01F
BRANSON        MOSUNNY   68  32  26 N14G25    30.01F
JOPLIN         SUNNY     69  42  37 N6        30.02F
WEST PLAINS    SUNNY     66  31  27 N9G18     30.00F

$$

IAZ060-094-KSZ022-034>040-054-083-096-NEZ052-066-093-060100-
...KANSAS...SOUTHEAST NEBRASKA AND IOWA...

CITY           SKY/WX    TMP DP  RH WIND       PRES   REMARKS
TOPEKA         SUNNY     75  41  29 N3        30.01F
6HR MIN TEMP:  73; 6HR MAX TEMP:  77;

MANHATTAN      SUNNY     79  39  23 E3        30.00F
EMPORIA        SUNNY     74  44  34 E6        30.01F
CHANUTE        SUNNY     74  43  32 NE6       30.01F
WICHITA        MOSUNNY   79  39  23 CALM      30.00F
OMAHA          PTSUNNY   76  43  30 SE8       29.99F
LINCOLN        SUNNY     78  41  26 S7        30.00F
FALLS CITY     SUNNY     73  42  32 VRB3      30.01F
LAMONI         SUNNY     69  40  34 W3        30.02F
DES MOINES     MOSUNNY   71  33  24 CALM      30.00F

$$





USA.gov is the U.S. government's official web portal to all federal, state and local government web resources and services.